YB2NDX-15 Weather Reports


time (UTC)temp
C
wind
direction
speed
KPH
gust
KPH
rain 1hr
cm
rain 24hr
cm
rain mn
cm
humidity
%
barometer
mb
20260508185351 27 0.0 0.0 0.00 0.00 0.00 1008.2
20260508184344 27 0.0 0.0 0.00 0.00 0.00 1008.3
20260508183338 27 0.0 0.0 0.00 0.00 0.00 1008.2
20260508182331 27 0.0 0.0 0.00 0.00 0.00 1008.1
20260508181324 27 0.0 0.0 0.00 0.00 0.00 1008.0
20260508180318 28 0.0 0.0 0.00 0.00 0.00 1008.1
20260508175312 28 0.0 0.0 0.00 0.00 0.00 1008.0
20260508174305 28 0.0 0.0 0.00 0.00 0.00 1008.2
20260508172253 28 0.0 0.0 0.00 0.00 0.00 1008.5
20260508171246 28 0.0 0.0 0.00 0.00 0.00 1008.6
20260508170240 28 0.0 0.0 0.00 0.00 0.00 1008.7
20260508165234 28 0.0 0.0 0.00 0.00 0.00 1008.8
20260508163221 28 0.0 0.0 0.00 0.00 0.00 1008.8
20260508162215 28 0.0 0.0 0.00 0.00 0.00 1008.9
20260508161208 28 0.0 0.0 0.00 0.00 0.00 1009.0
20260508160202 28 0.0 0.0 0.00 0.00 0.00 1009.0
20260508155155 28 0.0 0.0 0.00 0.00 0.00 1008.9
20260508154149 28 0.0 0.0 0.00 0.00 0.00 1008.9
20260508153143 28 0.0 0.0 0.00 0.00 0.00 1008.8
20260508152136 28 0.0 0.0 0.00 0.00 0.00 1008.9
20260508151129 29 0.0 0.0 0.00 0.00 0.00 1008.9
20260508145117 29 0.0 0.0 0.00 0.00 0.00 1009.2
20260508144111 29 0.0 0.0 0.00 0.00 0.00 1009.1
20260508143104 30 0.0 0.0 0.00 0.00 0.00 1009.0
20260508142058 30 0.0 0.0 0.00 0.00 0.00 1008.9
20260508141227 30 0.0 0.0 0.00 0.00 0.00 1008.8
20260508140220 30 0.0 0.0 0.00 0.00 0.00 1008.7
20260508134207 30 0.0 0.0 0.00 0.00 0.00 1008.6
20260508133201 30 0.0 0.0 0.00 0.00 0.00 1008.4
20260508132154 30 0.0 0.0 0.00 0.00 0.00 1008.3
20260508131148 30 0.0 0.0 0.00 0.00 0.00 1008.1
20260508130142 30 0.0 0.0 0.00 0.00 0.00 1008.0
20260508125135 30 0.0 0.0 0.00 0.00 0.00 1008.0
20260508124128 30 0.0 0.0 0.00 0.00 0.00 1007.9
20260508123122 30 0.0 0.0 0.00 0.00 0.00 1007.8
20260508122115 30 0.0 0.0 0.00 0.00 0.00 1007.6
20260508115056 31 0.0 0.0 0.00 0.00 0.00 1007.3
20260508114049 31 0.0 0.0 0.00 0.00 0.00 1007.2
20260508113043 31 0.0 0.0 0.00 0.00 0.00 1007.0
20260508112037 31 0.0 0.0 0.00 0.00 0.00 1006.8
20260508111031 31 0.0 0.0 0.00 0.00 0.00 1006.6
20260508110024 32 0.0 0.0 0.00 0.00 0.00 1006.3
20260508105018 32 0.0 0.0 0.00 0.00 0.00 1006.2
20260508104012 32 0.0 0.0 0.00 0.00 0.00 1006.2
20260508103006 32 0.0 0.0 0.00 0.00 0.00 1006.1
20260508102000 32 0.0 0.0 0.00 0.00 0.00 1005.9
20260508100954 32 0.0 0.0 0.00 0.00 0.00 1005.8
20260508094959 33 0.0 0.0 0.00 0.00 0.00 1005.6
20260508093952 33 0.0 0.0 0.00 0.00 0.00 1005.6
20260508092945 33 0.0 0.0 0.00 0.00 0.00 1005.5
20260508091939 34 0.0 0.0 0.00 0.00 0.00 1005.5
20260508090933 35 0.0 0.0 0.00 0.00 0.00 1005.4
20260508085927 35 0.0 0.0 0.00 0.00 0.00 1005.1
20260508084921 35 0.0 0.0 0.00 0.00 0.00 1004.9
20260508083915 36 0.0 0.0 0.00 0.00 0.00 1004.7
20260508082908 38 0.0 0.0 0.00 0.00 0.00 1005.2
20260508081902 46 0.0 0.0 0.00 0.00 0.00 1006.6
20260508080855 41 0.0 0.0 0.00 0.00 0.00 1006.2
20260508075849 36 0.0 0.0 0.00 0.00 0.00 1005.7
20260508074842 36 0.0 0.0 0.00 0.00 0.00 1005.4
20260508073835 -12 0.0 0.0 0.00 0.00 0.00 1005.4
20260508072829 37 0.0 0.0 0.00 0.00 0.00 1005.4
20260508070815 36 0.0 0.0 0.00 0.00 0.00 1005.2
20260508065809 36 0.0 0.0 0.00 0.00 0.00 1005.4
20260508064804 36 0.0 0.0 0.00 0.00 0.00 1005.4
20260508063757 36 0.0 0.0 0.00 0.00 0.00 1005.5
20260508062750 36 0.0 0.0 0.00 0.00 0.00 1005.2
20260508061744 36 0.0 0.0 0.00 0.00 0.00 1005.2
20260508060738 35 0.0 0.0 0.00 0.00 0.00 1005.4
20260508055731 35 0.0 0.0 0.00 0.00 0.00 1005.4
20260508054725 36 0.0 0.0 0.00 0.00 0.00 1005.6
20260508053718 36 0.0 0.0 0.00 0.00 0.00 1005.7
20260508052713 36 0.0 0.0 0.00 0.00 0.00 1005.9
20260508051707 36 0.0 0.0 0.00 0.00 0.00 1006.0
20260508050700 36 0.0 0.0 0.00 0.00 0.00 1006.3
20260508045654 36 0.0 0.0 0.00 0.00 0.00 1006.4
20260508044647 36 0.0 0.0 0.00 0.00 0.00 1006.5
20260508043640 36 0.0 0.0 0.00 0.00 0.00 1006.6
20260508042634 36 0.0 0.0 0.00 0.00 0.00 1006.7
20260508041627 36 0.0 0.0 0.00 0.00 0.00 1006.9
20260508040622 35 0.0 0.0 0.00 0.00 0.00 1007.0
20260508035615 35 0.0 0.0 0.00 0.00 0.00 1007.0
20260508034608 35 0.0 0.0 0.00 0.00 0.00 1007.3
20260508033601 35 0.0 0.0 0.00 0.00 0.00 1007.4
20260508032555 34 0.0 0.0 0.00 0.00 0.00 1007.6
20260508031549 34 0.0 0.0 0.00 0.00 0.00 1007.7
20260508030542 34 0.0 0.0 0.00 0.00 0.00 1007.7
20260508025536 33 0.0 0.0 0.00 0.00 0.00 1007.9
20260508023523 33 0.0 0.0 0.00 0.00 0.00 1008.0
20260508022517 33 0.0 0.0 0.00 0.00 0.00 1008.2
20260508020504 32 0.0 0.0 0.00 0.00 0.00 1008.2
20260508015457 32 0.0 0.0 0.00 0.00 0.00 1008.3
20260508014451 31 0.0 0.0 0.00 0.00 0.00 1008.5
20260508013445 31 0.0 0.0 0.00 0.00 0.00 1008.5
20260508012439 31 0.0 0.0 0.00 0.00 0.00 1008.6
20260508011434 30 0.0 0.0 0.00 0.00 0.00 1008.6
20260508010426 30 0.0 0.0 0.00 0.00 0.00 1008.6
20260508005420 30 0.0 0.0 0.00 0.00 0.00 1008.6
20260508004414 29 0.0 0.0 0.00 0.00 0.00 1008.6
20260508003408 29 0.0 0.0 0.00 0.00 0.00 1008.6
20260508002402 28 0.0 0.0 0.00 0.00 0.00 1008.6
20260508000350 28 0.0 0.0 0.00 0.00 0.00 1008.4
20260507235342 27 0.0 0.0 0.00 0.00 0.00 1008.4
20260507231317 26 0.0 0.0 0.00 0.00 0.00 1008.0
20260507230310 26 0.0 0.0 0.00 0.00 0.00 1007.9
20260507225306 26 0.0 0.0 0.00 0.00 0.00 1007.9
20260507224258 26 0.0 0.0 0.00 0.00 0.00 1007.8
20260507223251 26 0.0 0.0 0.00 0.00 0.00 1007.8
20260507222244 26 0.0 0.0 0.00 0.00 0.00 1007.7
20260507221323 26 0.0 0.0 0.00 0.00 0.00 1007.6
20260507220317 26 0.0 0.0 0.00 0.00 0.00 1007.6
20260507215311 26 0.0 0.0 0.00 0.00 0.00 1007.5
20260507214305 26 0.0 0.0 0.00 0.00 0.00 1007.4
20260507213300 26 0.0 0.0 0.00 0.00 0.00 1007.4
20260507212254 26 0.0 0.0 0.00 0.00 0.00 1007.3
20260507210241 26 0.0 0.0 0.00 0.00 0.00 1007.2
20260507205234 26 0.0 0.0 0.00 0.00 0.00 1007.3
20260507204229 26 0.0 0.0 0.00 0.00 0.00 1007.2
20260507203222 26 0.0 0.0 0.00 0.00 0.00 1007.2
20260507201209 27 0.0 0.0 0.00 0.00 0.00 1007.3
20260507200202 27 0.0 0.0 0.00 0.00 0.00 1007.3
20260507195156 27 0.0 0.0 0.00 0.00 0.00 1007.4
20260507194150 27 0.0 0.0 0.00 0.00 0.00 1007.5
20260507193143 27 0.0 0.0 0.00 0.00 0.00 1007.6
20260507192137 27 0.0 0.0 0.00 0.00 0.00 1007.7
20260507191131 27 0.0 0.0 0.00 0.00 0.00 1007.7
20260507190124 27 0.0 0.0 0.00 0.00 0.00 1007.6